When you browse on this site, cookies collect data to enhance your experience and personalize the content and advertising you see.
Visit our Privacy Policy to learn more. By continuing to use the site, you agree to this use of cookies and data.
  • In Hungary
  • List of Countries
  • For 7 days
  • Water Temperature
  • Satellite Maps
  • Weather Map
  • News
  • Weather Widgets
  • user-avatar
    Login

    Hourly Weather Miedzylesie

    Today, 26 June, Wednesday

    Time Temperature Precipitation Wind Pressure Humidity
    00:00 +20°C° 0 mm 2 mps 728 mmHg 90%
    01:00 +20°C° 0 mm 2 mps 728 mmHg 91%
    02:00 +20°C° 0 mm 2 mps 728 mmHg 91%
    03:00 +20°C° 0 mm 2 mps 728 mmHg 92%
    04:00 +19°C° 0 mm 2 mps 728 mmHg 92%
    05:00 +21°C° 0 mm 2 mps 728 mmHg 87%
    06:00 +24°C° 0 mm 3 mps 728 mmHg 82%
    07:00 +25°C° 0 mm 3 mps 728 mmHg 77%
    08:00 +26°C° 0 mm 3 mps 728 mmHg 74%
    09:00 +27°C° 0 mm 3 mps 728 mmHg 70%
    10:00 +28°C° 0 mm 4 mps 728 mmHg 66%
    11:00 +29°C° 0 mm 3 mps 728 mmHg 64%
    12:00 +30°C° 0 mm 3 mps 728 mmHg 62%
    13:00 +31°C° 0 mm 3 mps 728 mmHg 60%
    14:00 +31°C° 0 mm 3 mps 728 mmHg 60%
    15:00 +31°C° 0 mm 3 mps 727 mmHg 61%
    16:00 +31°C° 0 mm 3 mps 727 mmHg 61%
    17:00 +30°C° 0 mm 2 mps 726 mmHg 67%
    18:00 +29°C° 0 mm 2 mps 726 mmHg 72%
    19:00 +28°C° 0 mm 1 mps 726 mmHg 77%
    20:00 +27°C° 0.4 mm 1 mps 726 mmHg 80%
    21:00 +25°C° 0.4 mm 1 mps 726 mmHg 83%
    22:00 +24°C° 0.4 mm 1 mps 726 mmHg 86%
    23:00 +23°C° 0.5 mm 1 mps 726 mmHg 87%

    Tomorrow, 27 June, Thursday

    Time Temperature Precipitation Wind Pressure Humidity
    00:00 +23°C° 0.5 mm 1 mps 726 mmHg 88%
    01:00 +23°C° 0.5 mm 1 mps 726 mmHg 90%
    02:00 +22°C° 0 mm 1 mps 726 mmHg 92%
    03:00 +21°C° 0 mm 1 mps 726 mmHg 94%
    04:00 +21°C° 0 mm 1 mps 725 mmHg 96%
    05:00 +20°C° 0 mm 2 mps 726 mmHg 94%
    06:00 +20°C° 0 mm 2 mps 726 mmHg 93%
    07:00 +21°C° 0 mm 3 mps 726 mmHg 92%
    08:00 +21°C° 0 mm 3 mps 726 mmHg 84%
    09:00 +22°C° 0 mm 4 mps 726 mmHg 77%
    10:00 +22°C° 0 mm 4 mps 727 mmHg 70%
    11:00 +22°C° 0 mm 4 mps 726 mmHg 62%
    12:00 +23°C° 0 mm 5 mps 726 mmHg 55%
    13:00 +25°C° 0 mm 5 mps 726 mmHg 47%
    14:00 +23°C° 0 mm 5 mps 726 mmHg 49%
    15:00 +23°C° 0 mm 5 mps 726 mmHg 51%
    16:00 +22°C° 0 mm 5 mps 726 mmHg 52%
    17:00 +21°C° 0 mm 4 mps 726 mmHg 58%
    18:00 +20°C° 0 mm 4 mps 725 mmHg 63%
    19:00 +18°C° 0 mm 3 mps 725 mmHg 69%
    20:00 +17°C° 0 mm 3 mps 725 mmHg 71%
    21:00 +16°C° 0 mm 2 mps 726 mmHg 72%
    22:00 +14°C° 0 mm 2 mps 726 mmHg 74%
    23:00 +14°C° 0 mm 2 mps 726 mmHg 77%

    Day after tomorrow, 28 June, Friday

    Time Temperature Precipitation Wind Pressure Humidity
    00:00 +15°C° 0 mm 2 mps 726 mmHg 79%
    01:00 +15°C° 0 mm 2 mps 726 mmHg 82%
    02:00 +14°C° 0.1 mm 2 mps 726 mmHg 86%
    03:00 +14°C° 0.1 mm 1 mps 726 mmHg 90%
    04:00 +13°C° 0.1 mm 1 mps 726 mmHg 95%
    05:00 +14°C° 0.1 mm 2 mps 726 mmHg 92%
    06:00 +15°C° 0.1 mm 2 mps 726 mmHg 89%
    07:00 +16°C° 0.1 mm 2 mps 726 mmHg 87%
    08:00 +17°C° 0.3 mm 2 mps 726 mmHg 85%
    09:00 +18°C° 0.3 mm 3 mps 726 mmHg 83%
    10:00 +18°C° 0.3 mm 3 mps 726 mmHg 81%
    11:00 +19°C° 0.3 mm 3 mps 726 mmHg 76%
    12:00 +20°C° 0.3 mm 3 mps 726 mmHg 71%
    13:00 +21°C° 0.3 mm 3 mps 726 mmHg 65%
    14:00 +21°C° 0.1 mm 3 mps 726 mmHg 64%
    15:00 +21°C° 0.1 mm 3 mps 726 mmHg 64%
    16:00 +22°C° 0.1 mm 4 mps 726 mmHg 63%
    17:00 +21°C° 0.1 mm 3 mps 726 mmHg 69%
    18:00 +19°C° 0.1 mm 3 mps 726 mmHg 74%
    19:00 +18°C° 0.1 mm 2 mps 726 mmHg 80%
    20:00 +17°C° 0 mm 2 mps 726 mmHg 82%
    21:00 +16°C° 0 mm 2 mps 726 mmHg 84%
    22:00 +14°C° 0 mm 2 mps 727 mmHg 87%
    23:00 +13°C° 0 mm 2 mps 727 mmHg 83%

    29 June, Saturday

    Time Temperature Precipitation Wind Pressure Humidity
    00:00 +12°C° 0 mm 2 mps 727 mmHg 80%
    01:00 +12°C° 0 mm 1 mps 727 mmHg 76%
    02:00 +11°C° 0 mm 1 mps 727 mmHg 76%
    03:00 +11°C° 0 mm 1 mps 727 mmHg 77%
    04:00 +11°C° 0 mm 1 mps 727 mmHg 77%
    05:00 +13°C° 0 mm 1 mps 727 mmHg 71%
    06:00 +14°C° 0 mm 0 mps 727 mmHg 65%
    07:00 +16°C° 0 mm 0 mps 727 mmHg 59%
    08:00 +18°C° 0 mm 0 mps 728 mmHg 56%
    09:00 +21°C° 0 mm 1 mps 728 mmHg 53%
    10:00 +22°C° 0 mm 1 mps 728 mmHg 49%
    11:00 +23°C° 0 mm 1 mps 728 mmHg 48%
    12:00 +24°C° 0 mm 1 mps 727 mmHg 47%
    13:00 +24°C° 0 mm 1 mps 727 mmHg 46%
    14:00 +24°C° 0 mm 1 mps 727 mmHg 48%
    15:00 +24°C° 0 mm 1 mps 727 mmHg 49%
    16:00 +24°C° 0 mm 1 mps 726 mmHg 50%
    17:00 +23°C° 0 mm 1 mps 726 mmHg 58%
    18:00 +22°C° 0 mm 1 mps 726 mmHg 65%
    19:00 +19°C° 0 mm 0 mps 726 mmHg 72%
    20:00 +19°C° 0 mm 1 mps 726 mmHg 75%
    21:00 +18°C° 0 mm 1 mps 726 mmHg 79%
    22:00 +15°C° 0 mm 1 mps 726 mmHg 82%
    23:00 +15°C° 0 mm 1 mps 725 mmHg 83%

    30 June, Sunday

    Time Temperature Precipitation Wind Pressure Humidity
    00:00 +15°C° 0 mm 1 mps 725 mmHg 83%
    01:00 +14°C° 0 mm 1 mps 725 mmHg 83%
    02:00 +14°C° 0 mm 2 mps 725 mmHg 81%
    03:00 +14°C° 0 mm 2 mps 725 mmHg 78%
    04:00 +14°C° 0 mm 2 mps 724 mmHg 76%
    05:00 +16°C° 0 mm 2 mps 725 mmHg 72%
    06:00 +17°C° 0 mm 3 mps 725 mmHg 69%
    07:00 +19°C° 0 mm 3 mps 725 mmHg 65%
    08:00 +20°C° 0 mm 4 mps 725 mmHg 64%
    09:00 +21°C° 0 mm 4 mps 725 mmHg 63%
    10:00 +22°C° 0 mm 4 mps 725 mmHg 62%
    11:00 +23°C° 0 mm 5 mps 724 mmHg 62%
    12:00 +25°C° 0 mm 5 mps 724 mmHg 61%
    13:00 +26°C° 0 mm 6 mps 724 mmHg 61%
    14:00 +26°C° 0 mm 6 mps 724 mmHg 62%
    15:00 +27°C° 0 mm 6 mps 723 mmHg 64%
    16:00 +27°C° 0 mm 5 mps 723 mmHg 65%
    17:00 +26°C° 0 mm 5 mps 723 mmHg 70%
    18:00 +25°C° 0 mm 4 mps 723 mmHg 75%
    19:00 +23°C° 0 mm 4 mps 722 mmHg 80%
    20:00 +21°C° 0 mm 4 mps 722 mmHg 83%
    21:00 +20°C° 0 mm 4 mps 722 mmHg 86%
    22:00 +19°C° 0 mm 4 mps 722 mmHg 89%
    23:00 +19°C° 0 mm 3 mps 722 mmHg 89%

    1 July, Monday

    Time Temperature Precipitation Wind Pressure Humidity
    00:00 +18°C° 0 mm 3 mps 722 mmHg 90%
    01:00 +17°C° 0 mm 3 mps 722 mmHg 90%
    02:00 +17°C° 0 mm 3 mps 722 mmHg 91%
    03:00 +17°C° 0 mm 3 mps 722 mmHg 92%
    04:00 +16°C° 0 mm 3 mps 721 mmHg 92%
    05:00 +17°C° 0.1 mm 3 mps 721 mmHg 90%
    06:00 +18°C° 0.1 mm 3 mps 721 mmHg 89%
    07:00 +19°C° 0.1 mm 3 mps 722 mmHg 87%
    08:00 +20°C° 0.3 mm 3 mps 722 mmHg 86%
    09:00 +21°C° 0.3 mm 3 mps 722 mmHg 85%
    10:00 +22°C° 0.3 mm 3 mps 722 mmHg 84%
    11:00 +24°C° 0.2 mm 3 mps 722 mmHg 81%
    12:00 +26°C° 0.2 mm 4 mps 722 mmHg 77%
    13:00 +27°C° 0.2 mm 4 mps 722 mmHg 74%
    14:00 +27°C° 1.9 mm 4 mps 721 mmHg 78%
    15:00 +26°C° 1.9 mm 4 mps 721 mmHg 82%
    16:00 +25°C° 1.9 mm 4 mps 720 mmHg 86%
    17:00 +25°C° 2.7 mm 3 mps 720 mmHg 88%
    18:00 +24°C° 2.7 mm 2 mps 720 mmHg 89%
    19:00 +23°C° 2.7 mm 1 mps 720 mmHg 91%
    20:00 +22°C° 1.7 mm 1 mps 721 mmHg 91%
    21:00 +21°C° 1.7 mm 1 mps 721 mmHg 92%
    22:00 +20°C° 1.7 mm 1 mps 722 mmHg 92%
    23:00 +19°C° 0.4 mm 1 mps 721 mmHg 92%
    Show more